SCP
0 0 0 0 0 -0 0 0 0 0 0 -0 0 0 0 0 -0 -0 -0 -0 -0 -0 -0 -0 -0 -0 -0 -0 -0 -0 -0 -0 0 0 0 0 0 0 0 0 0 0 0 0
0 0 0 0 0 0 -0 0 0 -0 -0 0 0 -0 0 0 -0 -0 -0 -0 -0 -0 -0 -0 -0 -0 -0 -0 -0 -0 -0 -0 -0 -0 -0 -0 0 -0 0 0 0 0 0 0
0 0 0 0 0 0 0 -0 -0 0 -0 -0 0 0 0 0 0 -0 -0 -0 -0 -0 -0 -0 -0 -0 -0 -0 -0 -0 -0 -0 -0 -0 -0 0 0 -0 0 0 0 0 0 -0
0 0 0 0 0 0 0 0 0 -0 0 0 -0 0 0 0 0 -0 -0 -0 -0 -0 -0 -0 -0 -0 -0 -0 -0 -0 -0 -0 -0 -0 -0 -0 0 0 0 0 0 0 0 -0
0 0 0 0 0 0 0 0 0 0 0 -0 0 0 0 0 0 0 -0 -0 -0 -0 -0 -0 -0 -0 -0 -0 -0 -0 -0 -0 -0 -0 -0 0 0 0 -0 -0 0 0 -0 -0
0 0 0 0 0 0 0 0 0 0 0 0 -0 -0 0 0 0 0 0 -0 -0 -0 -0 -0 -0 -0 -0 -0 -0 -0 -0 -0 -0 -0 -0 -0 0 0 0 0 0 0 0 -0
0 0 0 0 0 0 0 0 0 0 0 0 -0 -0 0 0 0 0 0 0 -0 -0 -0 -0 -0 -0 -0 -0 -0 -0 -0 -0 -0 -0 -0 -0 0 -0 -0 0 0 -0 0 0
0 0 0 0 0 0 0 0 0 0 0 0 0 0 0 0 0 0 0 -0 -0 -0 -0 -0 -0 -0 -0 -0 -0 -0 -0 -0 -0 -0 -0 -0 -0 -0 -0 0 0 0 0 0
0 0 0 0 0 0 0 0 0 0 0 0 -0 -0 0 0 0 0 0 0 -0 -0 -0 0 -0 -0 -0 -0 -0 -0 -0 -0 -0 -0 0 -0 -0 -0 0 0 0 0 0 0
0 0 0 0 0 0 0 0 0 0 0 0 0 0 0 0 0 0 0 0 0 0 -0 0 0 -0 0 -0 -0 -0 -0 0 -0 -0 -0 -0 0 0 0 0 0 0 0 0
0 0 0 0 0 0 0 0 0 0 0 0 0 0 0 0 0 0 0 0 0 0 0 0 0 0 0 -0 -0 0 0 0 0 0 0 0 0 0 0 0 -0 0 0 0
0 0 0 0 0 0 0 0 0 0 0 0 0 0 0 0 0 0 0 0 0 0 0 0 0 0 0 -0 0 0 0 0 0 0 0 0 0 0 0 0 0 0 0 0
0 0 0 0 0 0 0 0 0 0 0 0 0 0 0 0 0 0 0 0 0 0 0 0 0 0 0 0 0 0 0 0 0 0 0 0 0 0 0 0 0 0 0 0
0 0 0 0 0 0 0 0 0 0 0 0 0 0 0 0 0 0 0 0 0 0 0 0 0 0 0 0 0 0 0 0 0 0 0 0 0 0 0 0 0 0 0 0
0 0 0 0 0 0 0 0 0 0 0 0 0 0 0 0 0 0 0 0 0 0 0 0 0 0 0 0 0 0 0 0 0 0 0 0 0 0 0 0 0 0 0 0
0 0 0 0 0 0 0 0 0 0 0 0 0 0 0 0 0 0 0 0 0 0 0 0 0 0 0 0 0 0 1 0 0 0 0 0 0 0 0 0 0 0 0 0
0 0 0 0 0 0 0 0 0 0 0 0 0 0 0 0 0 0 0 0 0 0 0 0 0 0 0 0 1 0 0 0 0 0 0 0 0 0 0 0 0 0 0 0
0 0 0 0 0 0 0 0 0 0 0 0 0 0 0 0 0 0 0 0 1 0 1 1 1 1 0 0 1 0 0 0 0 0 0 0 0 0 0 0 0 0 0 0
0 0 0 0 0 0 0 0 0 0 0 0 0 0 0 0 0 0 0 1 1 1 1 1 0 0 1 0 0 0 0 0 1 1 1 0 0 0 0 0 0 0 0 0
0 0 0 0 0 0 0 1 1 0 0 0 0 1 1 1 1 1 1 0 1 2 2 1 1 1 0 0 0 0 0 0 0 0 0 0 0 0 0 0 0 0 0 0
0 0 0 0 0 0 0 0 0 0 1 1 1 1 1 1 1 1 1 0 1 0 1 0 0 1 1 1 0 0 0 0 0 0 0 0 0 0 0 0 0 0 0 0
0 -0 0 0 0 1 1 2 2 2 1 1 1 1 1 1 1 2 2 1 0 0 0 1 1 0 0 0 0 0 0 0 0 0 0 0 1 1 0 0 0 0 0 0
0 0 1 1 1 1 1 1 1 1 1 1 1 1 1 1 1 1 1 1 1 0 0 0 0 0 0 0 0 0 0 0 0 0 0 0 0 0 0 0 0 0 0 0
0 0 0 0 0 0 0 0 0 0 0 0 0 0 0 0 0 0 0 0 0 0 0 0 0 0 0 0 0 0 0 0 0 0 0 0 0 0 0 0 0 0 0 0
0 0 0 0 0 0 0 0 0 0 0 0 0 0 0 0 0 0 0 0 0 0 0 0 0 0 0 0 0 0 0 0 0 0 0 0 0 0 0 0 0 0 0 0
0 0 0 0 0 0 0 0 0 0 0 0 0 0 0 0 0 0 0 0 0 0 0 0 0 0 0 0 0 0 0 0 0 0 0 0 0 0 0 0 0 0 0 0
-0 -0 0 0 0 0 0 0 0 0 0 0 0 0 0 0 0 0 0 0 0 0 0 0 0 0 0 0 0 0 0 0 0 0 0 0 0 0 0 0 0 0 0 0
Wind_Speed_500mb
51 39 50 46 52 55 54 46 42 36 36 31 19 25 25 29 29 38 52 52 47 45 44 44 43 39 34 30 28 26 25 24 23 25 23 22 23 23 26 25 25 24 27 29
52 51 48 53 51 51 53 50 47 44 35 28 24 24 26 34 26 39 52 54 50 47 46 48 47 44 39 35 33 30 27 26 26 26 26 25 24 24 27 26 24 25 26 23
44 49 53 47 55 54 48 47 44 42 40 28 21 29 15 23 26 39 50 57 56 53 51 51 50 46 44 40 37 34 30 28 30 30 30 28 26 26 26 27 26 23 23 26
39 44 55 41 42 45 49 44 43 43 38 35 34 30 31 33 36 34 47 56 58 55 51 51 50 48 44 42 41 38 34 31 32 35 33 32 31 28 27 28 28 26 23 24
31 37 30 49 32 48 41 43 43 44 42 39 38 40 34 38 41 36 43 55 60 58 55 52 54 52 48 45 43 41 38 35 34 36 38 36 34 33 31 29 28 25 22 22
29 33 52 38 44 31 42 40 43 43 40 37 42 28 20 41 37 36 37 46 53 57 57 55 56 55 53 50 47 45 42 39 36 36 40 40 38 36 33 30 28 25 22 20
31 30 30 44 32 35 41 29 41 54 51 45 35 35 25 26 46 41 39 43 51 57 64 69 68 68 60 55 52 47 42 40 38 37 40 43 44 39 36 32 28 27 25 24
37 35 34 41 40 44 21 5 37 52 51 48 48 41 34 14 34 37 44 45 53 57 60 64 63 68 63 63 53 48 45 43 41 40 39 41 47 42 38 37 34 31 28 26
35 25 15 32 31 49 25 23 21 31 34 45 45 41 38 33 30 35 47 47 51 52 57 59 66 69 66 69 58 53 50 49 46 43 40 40 44 43 40 44 36 34 32 30
29 25 25 22 26 37 30 27 26 24 24 33 36 33 38 32 31 38 52 53 45 52 55 60 67 75 68 58 58 58 56 53 51 48 45 42 40 40 40 41 39 38 37 36
28 15 36 30 35 19 34 28 15 14 21 26 28 34 33 35 37 42 49 46 43 49 55 60 61 66 64 61 61 65 64 61 58 51 53 49 46 45 44 44 44 42 42 40
16 16 13 17 24 15 19 28 19 22 22 24 31 30 29 30 37 41 50 47 43 43 44 52 58 62 66 67 68 71 71 69 66 59 56 50 48 45 48 43 50 49 44 42
27 7 8 17 14 9 12 20 27 32 30 26 22 26 27 26 30 34 40 46 41 41 41 42 52 59 63 69 71 78 80 74 66 63 59 61 55 54 52 58 51 62 58 54
40 20 9 23 23 21 26 29 28 26 27 20 27 20 21 21 27 30 32 33 36 36 36 41 48 55 60 66 76 79 80 77 72 71 64 61 62 60 55 56 61 65 71 68
67 38 24 36 19 26 23 24 31 34 34 31 29 24 20 21 24 27 29 31 33 34 38 42 46 50 52 60 74 80 79 81 79 66 69 62 60 57 57 55 56 56 55 77
56 47 37 42 47 34 32 33 34 38 28 37 33 28 24 24 26 28 31 32 31 36 37 42 46 47 50 55 66 73 78 80 76 76 66 70 64 63 60 60 59 58 67 64
51 37 42 53 61 60 45 39 38 42 47 42 33 28 28 29 27 28 33 31 30 31 35 39 40 42 47 52 62 66 72 73 83 75 70 67 69 64 63 58 56 56 59 63
42 43 49 47 46 55 62 50 52 49 53 47 37 33 31 28 29 37 37 34 30 28 24 22 28 34 42 47 57 57 61 65 67 85 77 69 67 67 61 58 53 49 51 58
46 49 56 60 57 49 43 48 60 52 46 45 37 35 32 32 28 30 33 29 28 24 26 26 33 36 43 44 50 53 53 57 61 71 80 76 66 64 65 58 56 50 50 54
52 52 53 58 57 55 54 51 44 46 48 39 39 38 40 33 28 26 24 23 21 21 29 26 30 37 37 35 55 48 48 49 52 56 74 72 67 72 75 67 58 50 62 47
45 51 51 53 49 49 52 55 56 51 34 37 44 43 38 30 23 19 17 19 16 31 36 40 34 25 26 31 44 49 44 47 47 52 46 74 69 56 65 69 62 60 58 59
44 54 58 51 47 36 24 30 28 28 24 19 30 35 33 32 27 22 17 15 8 15 10 9 13 33 31 42 34 39 36 43 42 45 43 46 59 63 59 59 58 56 63 67
21 41 50 48 48 50 49 45 42 45 51 37 27 22 18 29 27 24 22 23 18 18 14 10 10 17 25 19 21 26 28 30 37 39 41 46 47 52 58 56 65 78 77 73
50 62 52 53 57 58 54 47 48 46 40 43 34 32 4 4 23 25 23 20 15 12 11 14 17 21 19 11 16 20 22 28 32 36 38 53 69 67 61 70 74 80 84 93
68 53 50 50 52 50 42 42 43 42 36 29 25 14 10 2 19 19 16 16 14 13 11 9 10 15 12 9 11 15 20 27 30 34 40 42 52 65 79 76 75 86 84 82
52 51 50 43 43 42 37 28 32 29 19 17 1 4 10 7 14 15 14 14 15 23 12 11 7 7 8 10 12 14 18 25 29 32 37 47 49 62 72 67 76 78 85 97
50 54 50 42 40 41 36 28 18 21 14 7 9 5 3 3 9 10 13 9 12 13 14 12 9 15 12 13 14 14 15 22 27 31 37 43 58 58 67 81 77 91 99 89
Wind_Direction_500mb
228 206 197 205 213 218 214 218 222 228 235 251 233 193 200 171 171 188 188 184 181 185 186 186 186 187 187 183 185 182 177 175 167 154 146 138 134 128 118 115 115 109 102 104
218 228 206 205 212 221 223 221 223 232 242 230 209 234 188 164 181 192 194 189 186 187 188 188 188 187 186 183 184 181 179 176 173 162 157 153 146 139 132 127 122 116 111 117
223 214 228 220 208 213 221 225 222 222 228 236 214 212 209 179 186 198 196 194 192 191 190 189 188 187 186 184 183 183 180 177 175 171 167 161 153 148 142 140 139 133 126 123
210 216 215 225 215 219 218 221 218 230 225 223 235 232 201 224 191 205 198 198 196 193 190 190 188 187 186 185 185 185 183 182 179 178 176 168 165 160 157 149 146 140 137 136
210 210 216 218 223 215 215 221 212 219 224 235 230 224 218 216 190 195 202 201 198 195 191 187 187 186 187 187 188 189 188 188 184 180 181 177 173 173 166 162 159 155 153 152
206 210 213 212 200 224 208 226 208 214 222 220 223 224 212 203 208 191 197 200 197 193 191 189 187 187 187 190 191 192 192 190 187 183 184 184 182 181 176 174 172 170 173 173
213 217 218 207 168 188 211 228 210 213 217 216 218 226 221 229 201 196 198 193 191 190 192 193 187 186 189 193 196 193 192 191 189 186 185 186 187 187 185 182 187 179 185 187
211 201 215 200 174 184 209 245 184 199 205 210 215 223 226 205 177 192 193 188 185 190 194 195 192 191 190 194 196 192 190 191 191 189 183 187 189 188 189 184 190 189 190 190
211 205 207 203 211 169 178 162 166 180 191 199 210 216 208 204 211 201 196 189 187 191 195 196 196 198 197 195 192 192 192 191 190 191 184 191 186 187 186 190 189 189 191 187
210 172 151 164 179 176 200 195 198 204 188 200 202 194 199 184 199 197 190 189 191 191 194 199 202 204 203 194 193 192 193 192 191 191 186 191 189 191 187 190 187 188 188 185
198 200 170 166 188 170 192 201 120 215 191 176 189 187 191 191 202 196 189 188 189 191 198 203 205 206 203 198 194 195 194 193 193 194 193 196 190 193 191 199 188 189 191 188
196 160 231 171 182 195 199 214 207 219 209 187 186 185 192 195 193 198 202 197 194 197 201 205 207 205 204 201 198 195 195 196 196 193 198 198 197 199 197 204 195 191 196 195
291 110 189 285 307 267 256 233 209 215 227 193 197 186 179 182 184 195 203 205 203 205 206 204 207 207 204 204 202 199 198 198 201 197 199 196 200 199 202 200 212 197 197 200
255 280 258 255 256 242 243 252 238 212 214 206 186 185 186 199 176 199 208 208 210 212 209 206 203 208 207 204 204 204 202 201 200 203 204 203 204 203 204 206 208 209 205 205
244 231 240 257 270 276 272 273 262 239 205 220 209 202 205 214 225 224 230 227 221 219 216 210 208 208 209 207 205 205 204 203 206 208 207 209 207 209 209 210 212 212 212 212
233 216 217 248 244 240 260 268 253 250 217 221 216 217 217 230 232 228 228 220 218 217 219 215 211 210 209 206 206 207 209 210 208 208 210 210 209 210 212 213 212 210 212 221
227 242 222 233 241 237 237 243 249 243 224 219 216 222 232 235 226 220 216 211 221 223 219 219 215 211 210 208 205 206 212 214 210 213 213 211 213 213 212 213 215 217 210 211
233 229 234 239 230 237 238 240 237 237 230 214 220 227 231 224 218 216 213 215 215 219 213 211 215 218 214 211 212 209 210 212 217 212 214 214 213 213 212 210 210 219 221 213
227 228 231 237 234 238 244 244 233 233 229 226 231 218 208 203 197 202 204 207 214 216 221 217 219 212 204 213 213 214 214 214 214 214 214 213 216 211 209 212 201 207 212 208
231 238 230 230 226 231 234 238 242 231 226 216 210 202 199 188 184 190 202 211 213 211 208 226 231 214 215 205 212 209 212 213 212 213 213 212 213 206 206 203 206 203 215 181
226 225 220 220 214 222 231 226 234 225 195 193 198 193 184 170 166 172 186 197 238 227 227 235 243 225 229 218 215 208 216 215 214 211 210 211 207 207 203 199 211 190 170 169
232 221 212 197 186 172 155 136 121 133 124 141 187 165 162 140 139 133 128 148 168 179 152 201 195 214 205 216 212 210 215 215 211 211 210 208 201 201 204 199 187 171 168 165
173 167 142 145 141 132 122 118 119 114 110 100 98 109 123 132 137 137 128 118 101 104 99 112 142 168 159 149 184 196 204 201 205 207 202 189 191 191 187 183 177 175 175 182
86 93 101 116 121 116 110 107 100 105 98 105 93 90 31 134 109 134 132 124 113 103 94 97 113 136 139 155 169 186 189 190 193 194 188 191 187 191 182 183 184 185 184 192
76 83 85 94 95 89 87 88 94 97 99 95 89 77 322 229 124 114 116 118 113 103 101 106 128 118 116 149 163 176 183 188 187 187 186 183 177 179 183 181 182 189 190 190
63 67 67 70 81 84 83 86 98 97 89 93 141 235 261 74 99 101 119 118 104 88 83 84 101 92 123 146 155 164 170 180 186 182 186 185 178 197 193 183 196 198 191 173
75 75 67 63 67 80 80 76 72 111 117 153 199 227 210 175 130 111 110 100 104 108 100 102 117 118 116 131 145 155 157 160 175 182 181 181 184 180 188 195 190 181 172 173
Wind_Speed_850mb
51 39 50 46 52 55 54 46 42 36 36 31 19 25 25 29 29 38 52 52 47 45 44 44 43 39 34 30 28 26 25 24 23 25 23 22 23 23 26 25 25 24 27 29
52 51 48 53 51 51 53 50 47 44 35 28 24 24 26 34 26 39 52 54 50 47 46 48 47 44 39 35 33 30 27 26 26 26 26 25 24 24 27 26 24 25 26 23
44 49 53 47 55 54 48 47 44 42 40 28 21 29 15 23 26 39 50 57 56 53 51 51 50 46 44 40 37 34 30 28 30 30 30 28 26 26 26 27 26 23 23 26
39 44 55 41 42 45 49 44 43 43 38 35 34 30 31 33 36 34 47 56 58 55 51 51 50 48 44 42 41 38 34 31 32 35 33 32 31 28 27 28 28 26 23 24
31 37 30 49 32 48 41 43 43 44 42 39 38 40 34 38 41 36 43 55 60 58 55 52 54 52 48 45 43 41 38 35 34 36 38 36 34 33 31 29 28 25 22 22
29 33 52 38 44 31 42 40 43 43 40 37 42 28 20 41 37 36 37 46 53 57 57 55 56 55 53 50 47 45 42 39 36 36 40 40 38 36 33 30 28 25 22 20
31 30 30 44 32 35 41 29 41 54 51 45 35 35 25 26 46 41 39 43 51 57 64 69 68 68 60 55 52 47 42 40 38 37 40 43 44 39 36 32 28 27 25 24
37 35 34 41 40 44 21 5 37 52 51 48 48 41 34 14 34 37 44 45 53 57 60 64 63 68 63 63 53 48 45 43 41 40 39 41 47 42 38 37 34 31 28 26
35 25 15 32 31 49 25 23 21 31 34 45 45 41 38 33 30 35 47 47 51 52 57 59 66 69 66 69 58 53 50 49 46 43 40 40 44 43 40 44 36 34 32 30
29 25 25 22 26 37 30 27 26 24 24 33 36 33 38 32 31 38 52 53 45 52 55 60 67 75 68 58 58 58 56 53 51 48 45 42 40 40 40 41 39 38 37 36
28 15 36 30 35 19 34 28 15 14 21 26 28 34 33 35 37 42 49 46 43 49 55 60 61 66 64 61 61 65 64 61 58 51 53 49 46 45 44 44 44 42 42 40
16 16 13 17 24 15 19 28 19 22 22 24 31 30 29 30 37 41 50 47 43 43 44 52 58 62 66 67 68 71 71 69 66 59 56 50 48 45 48 43 50 49 44 42
27 7 8 17 14 9 12 20 27 32 30 26 22 26 27 26 30 34 40 46 41 41 41 42 52 59 63 69 71 78 80 74 66 63 59 61 55 54 52 58 51 62 58 54
40 20 9 23 23 21 26 29 28 26 27 20 27 20 21 21 27 30 32 33 36 36 36 41 48 55 60 66 76 79 80 77 72 71 64 61 62 60 55 56 61 65 71 68
67 38 24 36 19 26 23 24 31 34 34 31 29 24 20 21 24 27 29 31 33 34 38 42 46 50 52 60 74 80 79 81 79 66 69 62 60 57 57 55 56 56 55 77
56 47 37 42 47 34 32 33 34 38 28 37 33 28 24 24 26 28 31 32 31 36 37 42 46 47 50 55 66 73 78 80 76 76 66 70 64 63 60 60 59 58 67 64
51 37 42 53 61 60 45 39 38 42 47 42 33 28 28 29 27 28 33 31 30 31 35 39 40 42 47 52 62 66 72 73 83 75 70 67 69 64 63 58 56 56 59 63
42 43 49 47 46 55 62 50 52 49 53 47 37 33 31 28 29 37 37 34 30 28 24 22 28 34 42 47 57 57 61 65 67 85 77 69 67 67 61 58 53 49 51 58
46 49 56 60 57 49 43 48 60 52 46 45 37 35 32 32 28 30 33 29 28 24 26 26 33 36 43 44 50 53 53 57 61 71 80 76 66 64 65 58 56 50 50 54
52 52 53 58 57 55 54 51 44 46 48 39 39 38 40 33 28 26 24 23 21 21 29 26 30 37 37 35 55 48 48 49 52 56 74 72 67 72 75 67 58 50 62 47
45 51 51 53 49 49 52 55 56 51 34 37 44 43 38 30 23 19 17 19 16 31 36 40 34 25 26 31 44 49 44 47 47 52 46 74 69 56 65 69 62 60 58 59
44 54 58 51 47 36 24 30 28 28 24 19 30 35 33 32 27 22 17 15 8 15 10 9 13 33 31 42 34 39 36 43 42 45 43 46 59 63 59 59 58 56 63 67
21 41 50 48 48 50 49 45 42 45 51 37 27 22 18 29 27 24 22 23 18 18 14 10 10 17 25 19 21 26 28 30 37 39 41 46 47 52 58 56 65 78 77 73
50 62 52 53 57 58 54 47 48 46 40 43 34 32 4 4 23 25 23 20 15 12 11 14 17 21 19 11 16 20 22 28 32 36 38 53 69 67 61 70 74 80 84 93
68 53 50 50 52 50 42 42 43 42 36 29 25 14 10 2 19 19 16 16 14 13 11 9 10 15 12 9 11 15 20 27 30 34 40 42 52 65 79 76 75 86 84 82
52 51 50 43 43 42 37 28 32 29 19 17 1 4 10 7 14 15 14 14 15 23 12 11 7 7 8 10 12 14 18 25 29 32 37 47 49 62 72 67 76 78 85 97
50 54 50 42 40 41 36 28 18 21 14 7 9 5 3 3 9 10 13 9 12 13 14 12 9 15 12 13 14 14 15 22 27 31 37 43 58 58 67 81 77 91 99 89
Wind_Direction_850mb
228 206 197 205 213 218 214 218 222 228 235 251 233 193 200 171 171 188 188 184 181 185 186 186 186 187 187 183 185 182 177 175 167 154 146 138 134 128 118 115 115 109 102 104
218 228 206 205 212 221 223 221 223 232 242 230 209 234 188 164 181 192 194 189 186 187 188 188 188 187 186 183 184 181 179 176 173 162 157 153 146 139 132 127 122 116 111 117
223 214 228 220 208 213 221 225 222 222 228 236 214 212 209 179 186 198 196 194 192 191 190 189 188 187 186 184 183 183 180 177 175 171 167 161 153 148 142 140 139 133 126 123
210 216 215 225 215 219 218 221 218 230 225 223 235 232 201 224 191 205 198 198 196 193 190 190 188 187 186 185 185 185 183 182 179 178 176 168 165 160 157 149 146 140 137 136
210 210 216 218 223 215 215 221 212 219 224 235 230 224 218 216 190 195 202 201 198 195 191 187 187 186 187 187 188 189 188 188 184 180 181 177 173 173 166 162 159 155 153 152
206 210 213 212 200 224 208 226 208 214 222 220 223 224 212 203 208 191 197 200 197 193 191 189 187 187 187 190 191 192 192 190 187 183 184 184 182 181 176 174 172 170 173 173
213 217 218 207 168 188 211 228 210 213 217 216 218 226 221 229 201 196 198 193 191 190 192 193 187 186 189 193 196 193 192 191 189 186 185 186 187 187 185 182 187 179 185 187
211 201 215 200 174 184 209 245 184 199 205 210 215 223 226 205 177 192 193 188 185 190 194 195 192 191 190 194 196 192 190 191 191 189 183 187 189 188 189 184 190 189 190 190
211 205 207 203 211 169 178 162 166 180 191 199 210 216 208 204 211 201 196 189 187 191 195 196 196 198 197 195 192 192 192 191 190 191 184 191 186 187 186 190 189 189 191 187
210 172 151 164 179 176 200 195 198 204 188 200 202 194 199 184 199 197 190 189 191 191 194 199 202 204 203 194 193 192 193 192 191 191 186 191 189 191 187 190 187 188 188 185
198 200 170 166 188 170 192 201 120 215 191 176 189 187 191 191 202 196 189 188 189 191 198 203 205 206 203 198 194 195 194 193 193 194 193 196 190 193 191 199 188 189 191 188
196 160 231 171 182 195 199 214 207 219 209 187 186 185 192 195 193 198 202 197 194 197 201 205 207 205 204 201 198 195 195 196 196 193 198 198 197 199 197 204 195 191 196 195
291 110 189 285 307 267 256 233 209 215 227 193 197 186 179 182 184 195 203 205 203 205 206 204 207 207 204 204 202 199 198 198 201 197 199 196 200 199 202 200 212 197 197 200
255 280 258 255 256 242 243 252 238 212 214 206 186 185 186 199 176 199 208 208 210 212 209 206 203 208 207 204 204 204 202 201 200 203 204 203 204 203 204 206 208 209 205 205
244 231 240 257 270 276 272 273 262 239 205 220 209 202 205 214 225 224 230 227 221 219 216 210 208 208 209 207 205 205 204 203 206 208 207 209 207 209 209 210 212 212 212 212
233 216 217 248 244 240 260 268 253 250 217 221 216 217 217 230 232 228 228 220 218 217 219 215 211 210 209 206 206 207 209 210 208 208 210 210 209 210 212 213 212 210 212 221
227 242 222 233 241 237 237 243 249 243 224 219 216 222 232 235 226 220 216 211 221 223 219 219 215 211 210 208 205 206 212 214 210 213 213 211 213 213 212 213 215 217 210 211
233 229 234 239 230 237 238 240 237 237 230 214 220 227 231 224 218 216 213 215 215 219 213 211 215 218 214 211 212 209 210 212 217 212 214 214 213 213 212 210 210 219 221 213
227 228 231 237 234 238 244 244 233 233 229 226 231 218 208 203 197 202 204 207 214 216 221 217 219 212 204 213 213 214 214 214 214 214 214 213 216 211 209 212 201 207 212 208
231 238 230 230 226 231 234 238 242 231 226 216 210 202 199 188 184 190 202 211 213 211 208 226 231 214 215 205 212 209 212 213 212 213 213 212 213 206 206 203 206 203 215 181
226 225 220 220 214 222 231 226 234 225 195 193 198 193 184 170 166 172 186 197 238 227 227 235 243 225 229 218 215 208 216 215 214 211 210 211 207 207 203 199 211 190 170 169
232 221 212 197 186 172 155 136 121 133 124 141 187 165 162 140 139 133 128 148 168 179 152 201 195 214 205 216 212 210 215 215 211 211 210 208 201 201 204 199 187 171 168 165
173 167 142 145 141 132 122 118 119 114 110 100 98 109 123 132 137 137 128 118 101 104 99 112 142 168 159 149 184 196 204 201 205 207 202 189 191 191 187 183 177 175 175 182
86 93 101 116 121 116 110 107 100 105 98 105 93 90 31 134 109 134 132 124 113 103 94 97 113 136 139 155 169 186 189 190 193 194 188 191 187 191 182 183 184 185 184 192
76 83 85 94 95 89 87 88 94 97 99 95 89 77 322 229 124 114 116 118 113 103 101 106 128 118 116 149 163 176 183 188 187 187 186 183 177 179 183 181 182 189 190 190
63 67 67 70 81 84 83 86 98 97 89 93 141 235 261 74 99 101 119 118 104 88 83 84 101 92 123 146 155 164 170 180 186 182 186 185 178 197 193 183 196 198 191 173
75 75 67 63 67 80 80 76 72 111 117 153 199 227 210 175 130 111 110 100 104 108 100 102 117 118 116 131 145 155 157 160 175 182 181 181 184 180 188 195 190 181 172 173